Torna al catalogo

CZ-4B DEB

AttivoPO
NORAD 38310·DEBRIS·🇨🇳 China

Lanciato Dec 22, 2011 da Taiyuan Satellite Launch Center

Loading…

Prossimi Passaggi (prossime 24 ore)

TLE

AggiornatoSource: Space-Track

Epoca: Sep 14, 2026, 08:37 UTC

1 38310U 11079D   26257.35950932  .00002338  00000-0  43905-3 0  9991
2 38310  98.7109 212.1156 0097363 273.5423 239.2601 14.62772653775514

Traccia CZ-4B DEB in tempo reale con AllMySat

Download on the App Store